[[{"header":{"parameterUnit":"m.s-1","parameterCategory":1,"la1":30.2991,"la2":30.254,"lo1":-89.0895,"lo2":-89.0444,"dy":0.0017,"dx":0.0017,"nx":28,"ny":28,"refTime":"2025-06-09T09:00:00:Z","depth":0,"parameterNumber":2,"parameterNumberName":"U-component_of_WINDS"},"data":[0,0,0,0,0,0,0,0,0,0,0,0,0,0,0,0,0,0,0,0,0,0,0,0,0,0,0,0,0,0,0,0,0,0,0,0,0,0,0,0,0,0,0,0,0,0,0,0,0,0,0,0,0,0,0,0,0,0,0.9566,0.9567,0,0.9596,0.9596,0.9597,0.9599,0.9599,0.9598,0.9598,0.9626,0.9627,0.9628,0,0,0,0,0,0,0,0,0,0,0,0,0,0.9508,0.9509,0.9566,0.9567,0.9567,0.9596,0.9596,0.9597,0.9599,0.9599,0.9598,0.9598,0.9626,0.9627,0.9628,0,0,0,0,0,0,0,0,0,0,0,0,0,0.9535,0.951,0.9566,0.9572,0.9573,0.9596,0.9596,0.9597,0.9599,0.9599,0.9598,0.9598,0.9626,0.9627,0.9629,0.9648,0,0,0.9633,0.9634,0,0,0,0,0,0,0,0,0.9534,0.9537,0.9571,0.9572,0.9572,0.9593,0.9586,0.9614,0.9599,0.9589,0.9598,0.9598,0.9616,0.9618,0.9625,0.9649,0.965,0.9634,0.9635,0.9635,0.9636,0,0,0,0,0,0,0,0.9532,0.9536,0.9578,0.9571,0.9572,0.9572,0.9575,0.9591,0.9605,0.959,0.959,0.9594,0.9616,0.9623,0.9625,0.9651,0.9634,0.9635,0.9636,0.9637,0.969,0.9691,0,0,0,0,0,0,0.9529,0.9534,0.9577,0.9579,0.9552,0.9573,0.9577,0.9587,0.9604,0.9607,0.9594,0.9594,0.9621,0.9623,0.9626,0.9648,0.9635,0.9637,0.9638,0.969,0.969,0.9691,0,0,0,0,0,0,0.9528,0.9533,0.9576,0.9557,0.9562,0.9575,0.9586,0.9588,0.9595,0.9608,0.961,0.9599,0.962,0.9624,0.9642,0.9649,0.9637,0.9639,0.9689,0.969,0.9691,0.9694,0,0,0,0,0,0,0.9526,0.9533,0.9541,0.9557,0.9563,0.9592,0.9587,0.9589,0.9598,0.9598,0.9613,0.9615,0.962,0.964,0.9644,0.9651,0.964,0.9688,0.9689,0.969,0.9693,0.9694,0.9696,0,0,0,0,0,0.9524,0.9541,0.9541,0.9547,0.9574,0.9593,0.9596,0.9603,0.9599,0.9606,0.9614,0.9614,0.9648,0.9642,0.9646,0.9654,0.9688,0.9689,0.969,0.9692,0.9694,0.9696,0,0,0,0,0,0,0.9525,0.9543,0.9544,0.9566,0.9578,0.9593,0.9603,0.9605,0.9617,0.9617,0.9623,0.9627,0.9644,0.9651,0.9644,0.9673,0.9667,0.9669,0.9667,0.9669,0.9671,0.9668,0.9641,0,0,0,0,0,0.9528,0.9543,0.9557,0.9575,0.9581,0.9591,0.96,0.9603,0.9616,0.962,0.963,0.9641,0.9653,0.9662,0.9674,0.9694,0.9696,0.9702,0.9703,0.9704,0.9705,0.9714,0.9716,0.9694,0.9694,0.9694,0,0,0.9534,0.9545,0.9554,0.9576,0.9585,0.9599,0.9595,0.9611,0.962,0.9622,0.964,0.9647,0.9659,0.9678,0.9686,0.9684,0.9712,0.9705,0.9706,0.9707,0.9716,0.9718,0.972,0.9695,0.9695,0.9695,0,0,0.9551,0.9562,0.9578,0.9587,0.9602,0.9608,0.9612,0.9626,0.9631,0.9649,0.965,0.9661,0.9684,0.9692,0.9699,0.9718,0.9718,0.9722,0.9729,0.9737,0.9739,0.9741,0.9746,0.9748,0.9723,0.9723,0.9723,0,0.9557,0.9579,0.9585,0.96,0.9609,0.9611,0.9626,0.9635,0.9652,0.9657,0.9655,0.9682,0.9691,0.971,0.9714,0.9721,0.9724,0.972,0.9738,0.974,0.9741,0.9747,0.9749,0.9724,0.9724,0.9723,0.9723,0,0.9583,0.9598,0.9609,0.9626,0.9635,0.965,0.9658,0.9667,0.9669,0.9675,0.9692,0.9702,0.9716,0.9721,0.9724,0.9741,0.9739,0.9737,0.9732,0.9744,0.9749,0.9751,0.9724,0.9724,0.9724,0.9724,0,0,0.9603,0.9623,0.9626,0.9633,0.9649,0.966,0.9673,0.9687,0.9694,0.9706,0.9716,0.9734,0.9733,0.9741,0.9744,0.9752,0.9764,0.9749,0.9749,0.9751,0.9781,0.9782,0.9784,0.9764,0.9765,0.9765,0.978,0,0.9622,0.9647,0.9653,0.9674,0.9687,0.9689,0.9701,0.971,0.9716,0.9727,0.9733,0.9745,0.9742,0.9747,0.9755,0.9761,0.977,0.976,0.9773,0.9773,0.9769,0.9787,0.9788,0.9801,0.9782,0.9782,0.9782,0,0.9647,0.9659,0.9681,0.9693,0.9699,0.971,0.9722,0.9732,0.9743,0.9746,0.9754,0.9757,0.977,0.9764,0.9781,0.9774,0.9779,0.9783,0.9784,0.9785,0.9778,0.9787,0.9806,0.9808,0.9786,0.9785,0.9785,0,0.9657,0.9679,0.9695,0.9701,0.9716,0.9723,0.9729,0.9739,0.9746,0.9757,0.9761,0.9773,0.9779,0.9788,0.9792,0.9788,0.9808,0.9804,0.981,0.981,0.9815,0.9814,0.9833,0.9819,0.9819,0.9819,0.9819,0,0.9677,0.969,0.97,0.9709,0.9724,0.973,0.9743,0.975,0.9758,0.9768,0.977,0.9779,0.9785,0.9795,0.9799,0.9811,0.9814,0.9816,0.9817,0.9816,0.9815,0.9819,0.9818,0.982,0.982,0.982,0.9819,0,0.9691,0.9698,0.9715,0.9727,0.973,0.974,0.975,0.9759,0.9764,0.9777,0.978,0.9788,0.9799,0.9804,0.9818,0.9821,0.9835,0.9835,0.9831,0.9831,0.9838,0.9837,0.986,0.9862,0.9847,0.9847,0.9847,0,0.9702,0.9713,0.9726,0.9733,0.9739,0.975,0.9758,0.9763,0.9771,0.9782,0.9789,0.9801,0.981,0.9827,0.9834,0.9844,0.9844,0.9852,0.9846,0.9844,0.9843,0.9842,0.9843,0.9852,0.9853,0.9853,0.9853,0,0.9722,0.9724,0.9735,0.9747,0.9756,0.9765,0.9774,0.978,0.9786,0.9794,0.9806,0.9813,0.9827,0.9838,0.9848,0.9853,0.9854,0.9854,0.9856,0.9855,0.9852,0.9853,0.9833,0.9854,0.9854,0.9854,0.9854,0.9854,0.9734,0.9743,0.9753,0.9765,0.9772,0.978,0.9788,0.9794,0.9804,0.9816,0.9819,0.983,0.9839,0.9853,0.9858,0.9867,0.9865,0.9868,0.9869,0.987,0.9869,0.9851,0.9869,0.9869,0.9869,0.9869,0.9869,0,0.9753,0.9759,0.977,0.9782,0.9791,0.9791,0.9801,0.9808,0.9818,0.9826,0.9835,0.9847,0.9857,0.9864,0.9874,0.9879,0.988,0.9882,0.9881,0.9882,0.9871,0.9868,0.9881,0.9881,0.9881,0.9881,0.9881,0.9881,0.9763,0.9777,0.9781,0.9798,0.9804,0.9816,0.9821,0.9828,0.9834,0.9848,0.9857,0.9861,0.9868,0.9878,0.9887,0.9889,0.9892,0.9894,0.9895,0.9884,0.9883,0.9882,0.9879,0.9894,0.9895,0.9905,0.9906,0.9906]},{"header":{"parameterUnit":"m.s-1","parameterCategory":1,"la1":30.2991,"la2":30.254,"lo1":-89.0895,"lo2":-89.0444,"dy":0.0017,"dx":0.0017,"nx":28,"ny":28,"refTime":"2025-06-09T09:00:00:Z","depth":0,"parameterNumber":3,"parameterNumberName":"V-component_of_WINDS"},"data":[0,0,0,0,0,0,0,0,0,0,0,0,0,0,0,0,0,0,0,0,0,0,0,0,0,0,0,0,0,0,0,0,0,0,0,0,0,0,0,0,0,0,0,0,0,0,0,0,0,0,0,0,0,0,0,0,0,0,3.7935,3.7935,0,3.7938,3.7938,3.7938,3.7829,3.7826,3.7823,3.782,3.7823,3.7826,3.7829,0,0,0,0,0,0,0,0,0,0,0,0,0,3.7833,3.7835,3.7935,3.7935,3.7935,3.7938,3.7938,3.7938,3.7829,3.7825,3.7822,3.7819,3.7822,3.7826,3.7829,0,0,0,0,0,0,0,0,0,0,0,0,0,3.7861,3.7836,3.7935,3.7881,3.7876,3.7938,3.7938,3.7938,3.783,3.7825,3.7821,3.7817,3.7821,3.7825,3.783,3.7944,0,0,3.7843,3.7844,0,0,0,0,0,0,0,0,3.786,3.7865,3.7889,3.7885,3.788,3.7879,3.7903,3.794,3.7831,3.7848,3.782,3.7815,3.7845,3.7847,3.7858,3.7944,3.7944,3.7843,3.7846,3.7847,3.7849,0,0,0,0,0,0,0,3.7858,3.7864,3.7936,3.789,3.7884,3.7856,3.7855,3.791,3.7871,3.7846,3.7838,3.784,3.7842,3.7854,3.7857,3.7944,3.7843,3.7847,3.7849,3.7851,3.8122,3.8126,0,0,0,0,0,0,3.7863,3.7863,3.7936,3.7937,3.7859,3.7862,3.7861,3.7883,3.787,3.7864,3.7843,3.7834,3.7849,3.7852,3.7857,3.7987,3.7847,3.7851,3.7854,3.8117,3.8123,3.8128,0,0,0,0,0,0,3.7862,3.7871,3.7936,3.7898,3.7904,3.7868,3.7894,3.7886,3.7897,3.7868,3.7861,3.7863,3.7845,3.7851,3.7922,3.7986,3.7853,3.7857,3.8112,3.8119,3.8125,3.8252,0,0,0,0,0,0,3.7859,3.7871,3.7915,3.79,3.7906,3.8003,3.7898,3.7889,3.7905,3.7893,3.7884,3.7879,3.7842,3.7917,3.7927,3.799,3.786,3.8106,3.8115,3.8123,3.8242,3.8262,3.828,0,0,0,0,0,3.7856,3.7951,3.7917,3.7927,3.796,3.8007,3.8011,3.7967,3.7911,3.7954,3.7934,3.7879,3.7978,3.7925,3.7935,3.8001,3.8101,3.8112,3.8122,3.8233,3.8258,3.8279,0,0,0,0,0,0,3.7975,3.7948,3.791,3.8003,3.8008,3.7988,3.8041,3.7995,3.8016,3.8004,3.7949,3.7947,3.8028,3.8021,3.7963,3.8109,3.803,3.8043,3.811,3.8134,3.8153,3.8152,3.7864,0,0,0,0,0,3.8012,3.8052,3.8026,3.8111,3.8115,3.8078,3.8097,3.8062,3.8065,3.8066,3.8052,3.8057,3.8089,3.8111,3.8139,3.824,3.8236,3.829,3.8309,3.8325,3.8337,3.8388,3.8411,3.8162,3.8162,3.8162,0,0,3.8089,3.8079,3.8108,3.8134,3.8134,3.8176,3.808,3.813,3.816,3.8074,3.814,3.813,3.8132,3.8218,3.8256,3.8215,3.8405,3.8338,3.8351,3.8354,3.8401,3.8425,3.8446,3.8169,3.8168,3.8167,0,0,3.825,3.8248,3.8317,3.8318,3.8318,3.8292,3.8309,3.8296,3.8285,3.8351,3.8286,3.8322,3.8378,3.8381,3.839,3.8551,3.85,3.8561,3.8661,3.8711,3.8731,3.8748,3.8804,3.8825,3.8573,3.8574,3.8574,0,3.8346,3.8407,3.8358,3.8411,3.8424,3.8346,3.8415,3.8419,3.8428,3.8439,3.8393,3.8461,3.8456,3.8542,3.8581,3.8591,3.8607,3.8562,3.8732,3.8749,3.8764,3.8817,3.8838,3.8581,3.858,3.8579,3.8579,0,3.8524,3.8568,3.8623,3.8633,3.8652,3.8713,3.8672,3.8697,3.866,3.864,3.8706,3.8698,3.8722,3.874,3.8705,3.882,3.8795,3.8742,3.8661,3.8796,3.8845,3.8865,3.8592,3.8589,3.8587,3.8585,0,0,3.8762,3.8742,3.8763,3.8766,3.876,3.8792,3.8849,3.8871,3.8893,3.8902,3.8947,3.8996,3.8946,3.8956,3.8921,3.8966,3.9092,3.8907,3.8906,3.894,3.9216,3.9255,3.928,3.9058,3.9062,3.9064,3.9215,0,3.8918,3.9013,3.8969,3.9069,3.9107,3.9033,3.9082,3.9083,3.9065,3.9095,3.9074,3.9109,3.9041,3.9047,3.9087,3.9068,3.9146,3.9056,3.9099,3.9101,3.91,3.9305,3.9347,3.949,3.9234,3.9237,3.924,0,3.9112,3.9128,3.9231,3.9216,3.923,3.9275,3.9291,3.9321,3.932,3.9303,3.9314,3.9268,3.9321,3.9241,3.9313,3.9253,3.9268,3.9261,3.9265,3.9267,3.9178,3.9312,3.9535,3.9556,3.9269,3.9267,3.9265,0,3.9274,3.9321,3.9388,3.9393,3.9377,3.9409,3.9404,3.9399,3.9415,3.9429,3.9438,3.9459,3.947,3.9487,3.9447,3.9393,3.9525,3.9442,3.9512,3.9513,3.9543,3.9542,3.9771,3.9554,3.9554,3.9553,3.9553,0,3.9452,3.9518,3.946,3.9501,3.9572,3.9521,3.9592,3.9579,3.9575,3.9612,3.955,3.9586,3.9532,3.9562,3.9532,3.9596,3.9602,3.9589,3.958,3.9594,3.9596,3.9603,3.9592,3.9559,3.9558,3.9557,3.9556,0,3.9644,3.9608,3.9676,3.9655,3.9651,3.9704,3.9685,3.9722,3.9699,3.9747,3.9755,3.9718,3.9751,3.9713,3.9743,3.9722,3.9809,3.9785,3.9809,3.9802,3.9874,3.9867,4.0115,4.0145,3.991,3.9912,3.9914,0,3.976,3.9809,3.9792,3.9811,3.981,3.9843,3.9858,3.9809,3.9827,3.9829,3.9865,3.9893,3.9912,3.9967,3.9943,3.9966,3.9942,4.0027,3.9945,3.9957,3.9942,3.9939,3.9943,4.0044,4.0047,4.0049,4.0051,0,3.9969,3.9948,3.9972,3.999,4.0009,4.0021,4.0028,4.0048,3.9996,4.002,4.0052,4.0067,4.0096,4.0124,4.0139,4.0133,4.0084,4.0077,4.0094,4.0109,4.012,4.0114,3.9854,4.0072,4.0069,4.0068,4.0067,4.0066,4.0126,4.0164,4.0158,4.0186,4.0186,4.0193,4.0226,4.0206,4.0232,4.0252,4.0221,4.0261,4.0257,4.0272,4.0272,4.0302,4.0266,4.0291,4.0297,4.0304,4.0314,4.0116,4.0305,4.0304,4.0304,4.0303,4.0303,0,4.033,4.0322,4.0348,4.0359,4.0381,4.0331,4.0336,4.0358,4.0393,4.0393,4.0413,4.0449,4.0475,4.0453,4.0474,4.0503,4.048,4.051,4.0507,4.0506,4.0346,4.0329,4.0527,4.0527,4.0527,4.0527,4.0527,4.0527,4.0439,4.0502,4.048,4.0541,4.0532,4.057,4.0577,4.0583,4.0582,4.0625,4.0646,4.0631,4.0622,4.0641,4.0663,4.0656,4.0666,4.0704,4.0689,4.054,4.0518,4.0497,4.048,4.0706,4.0707,4.0845,4.0847,4.0848]}]]